Regional Weather Roundup
Issued by NWS Green Bay, WI

Home | Current Version | Previous Version | Graphics & Text | Print | Product List | Glossary Off
Versions: 1 2 3 4 5 6 7 8 9 10 11 12 13 14 15 16 17 18 19 20 21 22 23 24 25 26 27 28 29 30 31 32 33 34 35 36 37 38 39 40 41 42 43 44 45 46 47 48 49 50

229
ASUS43 KGRB 201901
RWRGRB

NORTH-CENTRAL AND NORTHEAST WISCONSIN REGIONAL WEATHER ROUNDUP
NATIONAL WEATHER SERVICE GREEN BAY WI
200 PM CDT WED SEP 20 2017

WIZ005-009-010>012-018-019-202000-
NORTH CENTRAL WISCONSIN

CITY           SKY/WX    TMP DP  RH WIND       PRES   REMARKS
IRONWOOD       CLOUDY    68  64  87 SW15G21   29.76R
MANITOWISH WTR NOT AVBL
ARBOR VITAE    NOT AVBL
EAGLE RIVER    NOT AVBL
LAND O LAKES   CLOUDY    66  64  91 S10       29.83S
RHINELANDER    CLOUDY    66  65  96 S8        29.83S FOG
PHILLIPS       CLOUDY    67  66  97 S7        29.79S
ANTIGO         NOT AVBL
TOMAHAWK       NOT AVBL
MERRILL        NOT AVBL
$$

WIZ013-073-202000-
NORTHEAST WISCONSIN

CITY           SKY/WX    TMP DP  RH WIND       PRES   REMARKS
IRON MOUNTAIN  CLOUDY    69  63  81 SE9       29.82F
MARINETTE      MOSUNNY   73  65  75 S16G28    29.83F
$$

WIZ017-030-035>037-045-202000-
CENTRAL WISCONSIN

CITY           SKY/WX    TMP DP  RH WIND       PRES   REMARKS
MEDFORD        NOT AVBL
WAUSAU         CLOUDY    72  67  84 S8        29.79F
MOSINEE        NOT AVBL
MARSHFIELD     CLOUDY    75  66  73 S9        29.80S
WISC RAPIDS    CLOUDY    78  69  73 S3        29.80F
STEVENS POINT  NOT AVBL
WAUPACA        NOT AVBL
SHAWANO        NOT AVBL
CLINTONVILLE   MOSUNNY   79  64  61 S15G21    29.80F
WAUTOMA        PTSUNNY   85  71  63 SE13      29.78F HX  90
$$

WIZ038-039-048-051-202000-
FOX VALLEY

CITY           SKY/WX    TMP DP  RH WIND       PRES   REMARKS
NWS GREEN BAY  CLOUDY    79  68  69 SE20G28   29.82F
APPLETON       NOT AVBL
OSHKOSH        SUNNY     82  69  64 SE16G24   29.79F
FOND DU LAC    SUNNY     85  67  54 SE17G26   29.81F
$$

WIZ022-050-052-202000-
EAST CENTRAL WISCONSIN

CITY           SKY/WX    TMP DP  RH WIND       PRES   REMARKS
EPHRAIM        FAIR      70  65  84 S13G30    29.85F
WASHINGTON ISL NOT AVBL
STURGEON BAY   CLOUDY    73  65  75 S20G38    29.85F
MANITOWOC      CLOUDY    71  66  84 SE17G26   29.86F
SHEBOYGAN      MOSUNNY   74  68  81 SE16G24   29.87F
$$

LMZ563-521-522-541>543-202000-
LAKESHORE

STATION/POSITION TIME  TEMP    WIND        PRES    VSBY  WAVE
                       AIR SEA DIR/SP/G                  HT/PER
                 (UTC) (F)     (DEG/KT/KT) (MB)    (MI)  (FT/S)
SHEBOYGAN LKSHOR 1800   66     150/ 17/ 18 1012.3F
KEWAUNEE LKSHORE 1830   64     170/ 16/ 18 1011.0F
NORTHPORT PIER   1840   67     150/ 12/ 19 1011.2F
N MID LAKE BUOY  1750   66 65  150/  8/ 10 1012.8F         1/ 4
S GREEN BAY BUOY 1800   70 66  150/ 17/ 23 1010.4
MENOMINEE LKSHOR 1824   69     170/ 12/ 20 1010.5
$$




USA.gov is the U.S. government's official web portal to all federal, state and local government web resources and services.